Cherry Point, NC

6:10 AM EDT on August 28, 2016 (GMT -0400)
Cherry Point Marine Corps Air Station

Weather History for KNKT - September, 2013

Change the Weather History Date:

Saturday, September 28, 2013

  Actual Average Record
Temperature  
Mean Temperature 68 °F -  
Max Temperature 77 °F 77 °F 90 °F (1998)
Min Temperature 61 °F 60 °F 51 °F (2001)
Cooling Degree Days 3    
Growing Degree Days 18 (Base 50)    
Moisture  
Dew Point 58 °F    
Average Humidity 72    
Maximum Humidity 87    
Minimum Humidity 52    
Precipitation  
Precipitation 0.00 in - - ()
Sea Level Pressure  
Sea Level Pressure 30.13 in    
Wind  
Wind Speed 13 mph (NNE)    
Max Wind Speed 17 mph    
Max Gust Speed 26 mph    
Visibility 10 miles    
Events      
Averages and records for this station are not official NWS values.
T = Trace of Precipitation, MM = Missing Value Source: NWS Daily Summary

Daily Weather History Graph

Daily Weather History Graph

Search for Another Location

Airport or City:

Trip Planner

Search our weather history database for the weather conditions in past years. The results will help you decide how hot, cold, wet, or windy it might be!

Date:

Astronomy

Sep. 28, 2013 Rise Set
Actual Time 7:00 AM EDT 6:55 PM EDT
Civil Twilight 6:34 AM EDT 7:20 PM EDT
Nautical Twilight 6:05 AM EDT 7:49 PM EDT
Astronomical Twilight 5:36 AM EDT 8:19 PM EDT
Moon 12:57 AM EDT 3:01 PM EDT
Length of Visible Light 12h 45m
Length of Day
11h 55m
Last Quarter, 36% of the Moon is Illuminated
Sep 28
Last Quarter
Oct 4
New
Oct 11
First Quarter
Oct 18
Full
Oct 26
Last Quarter

Hourly Weather History & Observations

Time (EDT) Temp. Dew Point Humidity Pressure Visibility Wind Dir Wind Speed Gust Speed Precip Events Conditions
12:54 AM 66.0 °F 55.9 °F 70% 30.12 in 10.0 mi NNE 15.0 mph - N/A   Overcast
1:54 AM 64.0 °F 57.0 °F 78% 30.12 in 10.0 mi NNE 10.4 mph 19.6 mph N/A   Overcast
2:54 AM 63.0 °F 57.0 °F 81% 30.10 in 10.0 mi North 13.8 mph - N/A   Mostly Cloudy
3:54 AM 63.0 °F 57.0 °F 81% 30.10 in 10.0 mi NNE 12.7 mph - N/A   Scattered Clouds
4:54 AM 62.1 °F 57.9 °F 86% 30.10 in 10.0 mi NNE 11.5 mph - N/A   Clear
5:54 AM 62.1 °F 57.9 °F 86% 30.11 in 10.0 mi NNE 15.0 mph - N/A   Partly Cloudy
6:54 AM 61.0 °F 57.0 °F 87% 30.13 in 10.0 mi NNE 9.2 mph - N/A   Scattered Clouds
7:54 AM 63.0 °F 57.0 °F 81% 30.14 in 10.0 mi NNE 10.4 mph - N/A   Partly Cloudy
8:54 AM 66.0 °F 57.9 °F 75% 30.15 in 10.0 mi North 11.5 mph - N/A   Clear
9:54 AM 69.1 °F 59.0 °F 70% 30.17 in 10.0 mi NNE 16.1 mph - N/A   Partly Cloudy
10:54 AM 73.0 °F 60.1 °F 64% 30.17 in 10.0 mi NNE 15.0 mph - N/A   Partly Cloudy
11:54 AM 75.0 °F 60.1 °F 60% 30.17 in 10.0 mi NE 17.3 mph - N/A   Scattered Clouds
12:54 PM 75.9 °F 57.9 °F 54% 30.16 in 10.0 mi NE 13.8 mph - N/A   Scattered Clouds
1:54 PM 75.0 °F 57.9 °F 55% 30.15 in 10.0 mi NE 13.8 mph 20.7 mph N/A   Mostly Cloudy
2:54 PM 75.0 °F 60.1 °F 60% 30.14 in 10.0 mi East 12.7 mph - N/A   Scattered Clouds
3:54 PM 75.0 °F 59.0 °F 57% 30.12 in 10.0 mi ENE 15.0 mph 26.5 mph N/A   Scattered Clouds
4:54 PM 72.0 °F 60.1 °F 66% 30.12 in 10.0 mi ENE 13.8 mph - N/A   Mostly Cloudy
5:54 PM 73.9 °F 55.0 °F 52% 30.13 in 10.0 mi NE 16.1 mph - N/A   Scattered Clouds
6:54 PM 70.0 °F 57.9 °F 65% 30.13 in 10.0 mi NNE 13.8 mph - N/A   Mostly Cloudy
7:54 PM 68.0 °F 59.0 °F 73% 30.14 in 10.0 mi NNE 11.5 mph - N/A   Partly Cloudy
8:54 PM 66.0 °F 59.0 °F 78% 30.14 in 10.0 mi NNE 11.5 mph - N/A   Clear
9:54 PM 64.9 °F 59.0 °F 81% 30.14 in 10.0 mi NNE 11.5 mph - N/A   Clear
10:54 PM 64.0 °F 59.0 °F 84% 30.14 in 10.0 mi NNE 10.4 mph - N/A   Clear
11:54 PM 64.0 °F 59.0 °F 84% 30.12 in 10.0 mi NNE 10.4 mph - N/A   Clear